BAW108 OMDB-EGLL

Flight info

Callsign BAW108
Flight time N/A
Altitude 34000
Route SENPA N571 ALPOB L768 ULADA Q143 MEDGO N697 HIL A788 HLF/N0493F360 L604 WEJ L677 CVO L617 NOZ L551 ANTAR UN133 KPC DCT FSK/N0487F380 DCT DISOR DCT LONTA UL608 DOLEV DCT BOSNA DCT MARIL DCT OKSIG DCT KUSIB DCT GORPA DCT DOL DCT NIPEL DCT MODSA DCT BABEG DCT LIRSU DCT ARCKY DCT BUB L608 LOGAN
Aircraft B77W/H-SDE1E2E3FGHIJ2J3J4J5M1RWXY/LB1D1

Departure

Time 2026-05-03 23:40
Airport Dubai International Airport (OMDB)

Arrival

Time N/A
Airport London Heathrow Airport (EGLL)
Time Latitude Longitude Altitude Speed Heading
2026-05-03 23:14 25.25237 55.35644 27 ft 0 kts 211°
2026-05-03 23:32 25.25238 55.35644 27 ft 2 kts 211°
2026-05-03 23:33 25.25258 55.35658 26 ft 3 kts 211°
2026-05-03 23:33 25.25279 55.35672 25 ft 3 kts 211°
2026-05-03 23:33 25.25296 55.35683 24 ft 3 kts 213°
2026-05-03 23:33 25.25313 55.35700 25 ft 3 kts 249°
2026-05-03 23:34 25.25315 55.35724 26 ft 3 kts 289°
2026-05-03 23:34 25.25305 55.35747 25 ft 3 kts 302°
2026-05-03 23:34 25.25297 55.35762 25 ft 3 kts 302°
2026-05-03 23:34 25.25290 55.35775 25 ft 0 kts 302°
2026-05-03 23:37 25.25291 55.35773 25 ft 1 kts 302°
2026-05-03 23:37 25.25302 55.35753 25 ft 5 kts 302°
2026-05-03 23:37 25.25326 55.35711 25 ft 8 kts 302°
2026-05-03 23:38 25.25379 55.35692 27 ft 9 kts 11°
2026-05-03 23:38 25.25442 55.35727 27 ft 11 kts 30°
2026-05-03 23:38 25.25510 55.35770 27 ft 7 kts 31°
2026-05-03 23:38 25.25551 55.35798 27 ft 7 kts 31°
2026-05-03 23:39 25.25591 55.35826 27 ft 7 kts 36°
2026-05-03 23:39 25.25592 55.35875 27 ft 7 kts 116°
2026-05-03 23:39 25.25589 55.35880 27 ft 1 kts 117°
2026-05-03 23:39 25.25541 55.35974 27 ft 32 kts 121°
2026-05-03 23:40 25.25271 55.36458 27 ft 117 kts 121°
2026-05-03 23:40 25.24700 55.37484 29 ft 193 kts 121°
2026-05-03 23:40 25.23944 55.38829 568 ft 203 kts 123°
2026-05-03 23:40 25.23184 55.40197 1236 ft 219 kts 121°
2026-05-03 23:41 25.22387 55.41641 1878 ft 227 kts 122°
2026-05-03 23:41 25.21512 55.43204 2061 ft 250 kts 126°
2026-05-03 23:41 25.20166 55.44486 2175 ft 267 kts 163°
2026-05-03 23:41 25.18343 55.44619 2657 ft 265 kts 200°
2026-05-03 23:42 25.16743 55.43674 3220 ft 263 kts 217°
2026-05-03 23:42 25.15247 55.42483 3800 ft 264 kts 227°
2026-05-03 23:42 25.14332 55.40764 4414 ft 262 kts 259°
2026-05-03 23:42 25.14222 55.38776 5126 ft 261 kts 275°
2026-05-03 23:43 25.14381 55.36785 5911 ft 260 kts 276°
2026-05-03 23:43 25.14561 55.34793 6633 ft 262 kts 276°
2026-05-03 23:43 25.14744 55.32780 7325 ft 264 kts 276°
2026-05-03 23:43 25.14925 55.30754 8087 ft 267 kts 277°